Hourly Weather Exeter

Today, 8 August, Saturday

Time Temperature Precipitation Wind Pressure Humidity
00:00 +17°C° 0 mm 3 mps 757 mmHg 89%
01:00 +17°C° 0 mm 3 mps 756 mmHg 91%
02:00 +17°C° 0 mm 3 mps 756 mmHg 93%
03:00 +17°C° 0 mm 3 mps 756 mmHg 94%
04:00 +17°C° 0 mm 3 mps 756 mmHg 94%
05:00 +17°C° 0 mm 3 mps 756 mmHg 94%
06:00 +17°C° 0 mm 4 mps 757 mmHg 94%
07:00 +19°C° 0 mm 4 mps 757 mmHg 88%
08:00 +21°C° 0 mm 4 mps 757 mmHg 82%
09:00 +22°C° 0 mm 4 mps 757 mmHg 77%
10:00 +23°C° 0 mm 4 mps 757 mmHg 73%
11:00 +25°C° 0 mm 4 mps 757 mmHg 69%
12:00 +27°C° 0 mm 4 mps 757 mmHg 66%
13:00 +27°C° 0 mm 4 mps 757 mmHg 66%
14:00 +27°C° 0 mm 4 mps 757 mmHg 67%
15:00 +27°C° 0 mm 4 mps 757 mmHg 67%
16:00 +26°C° 0 mm 4 mps 757 mmHg 70%
17:00 +26°C° 0 mm 4 mps 756 mmHg 73%
18:00 +25°C° 0 mm 4 mps 756 mmHg 76%
19:00 +22°C° 0 mm 4 mps 756 mmHg 81%
20:00 +20°C° 0 mm 3 mps 756 mmHg 85%
21:00 +19°C° 0 mm 3 mps 756 mmHg 89%
22:00 +19°C° 0 mm 3 mps 756 mmHg 91%
23:00 +18°C° 0 mm 3 mps 756 mmHg 93%

Tomorrow, 9 August, Sunday

Time Temperature Precipitation Wind Pressure Humidity
00:00 +18°C° 0 mm 3 mps 756 mmHg 94%
01:00 +18°C° 0 mm 3 mps 756 mmHg 95%
02:00 +17°C° 0 mm 4 mps 756 mmHg 95%
03:00 +17°C° 0 mm 4 mps 755 mmHg 96%
04:00 +17°C° 0 mm 4 mps 755 mmHg 95%
05:00 +17°C° 0 mm 4 mps 755 mmHg 95%
06:00 +17°C° 0 mm 4 mps 755 mmHg 94%
07:00 +18°C° 0 mm 4 mps 755 mmHg 90%
08:00 +19°C° 0 mm 4 mps 755 mmHg 86%
09:00 +20°C° 0 mm 4 mps 755 mmHg 81%
10:00 +22°C° 0 mm 4 mps 755 mmHg 77%
11:00 +23°C° 0 mm 4 mps 755 mmHg 73%
12:00 +25°C° 0 mm 4 mps 755 mmHg 69%
13:00 +26°C° 0 mm 3 mps 755 mmHg 68%
14:00 +26°C° 0 mm 3 mps 755 mmHg 68%
15:00 +26°C° 0 mm 3 mps 755 mmHg 67%
16:00 +26°C° 0 mm 3 mps 754 mmHg 71%
17:00 +25°C° 0 mm 3 mps 754 mmHg 74%
18:00 +25°C° 0 mm 3 mps 754 mmHg 77%
19:00 +22°C° 0 mm 3 mps 754 mmHg 82%
20:00 +20°C° 0 mm 3 mps 754 mmHg 88%
21:00 +18°C° 0 mm 3 mps 754 mmHg 93%
22:00 +18°C° 0 mm 3 mps 753 mmHg 94%
23:00 +18°C° 0 mm 3 mps 753 mmHg 94%

Day after tomorrow, 10 August, Monday

Time Temperature Precipitation Wind Pressure Humidity
00:00 +18°C° 0 mm 3 mps 753 mmHg 95%
01:00 +18°C° 0 mm 3 mps 753 mmHg 95%
02:00 +18°C° 0 mm 3 mps 753 mmHg 95%
03:00 +18°C° 0 mm 3 mps 753 mmHg 95%
04:00 +18°C° 0 mm 3 mps 752 mmHg 95%
05:00 +18°C° 0 mm 3 mps 752 mmHg 94%
06:00 +18°C° 0 mm 3 mps 752 mmHg 94%
07:00 +19°C° 0 mm 3 mps 752 mmHg 91%
08:00 +20°C° 0 mm 3 mps 753 mmHg 87%
09:00 +21°C° 0 mm 3 mps 753 mmHg 84%
10:00 +22°C° 0 mm 3 mps 753 mmHg 82%
11:00 +22°C° 0 mm 3 mps 753 mmHg 80%
12:00 +24°C° 0 mm 2 mps 753 mmHg 78%
13:00 +24°C° 0 mm 2 mps 753 mmHg 77%
14:00 +24°C° 0 mm 3 mps 753 mmHg 77%
15:00 +25°C° 0 mm 3 mps 753 mmHg 76%
16:00 +24°C° 0 mm 3 mps 753 mmHg 78%
17:00 +22°C° 0 mm 3 mps 753 mmHg 80%
18:00 +21°C° 0 mm 3 mps 753 mmHg 82%
19:00 +20°C° 0 mm 3 mps 753 mmHg 86%
20:00 +18°C° 0 mm 3 mps 753 mmHg 91%
21:00 +17°C° 0 mm 3 mps 753 mmHg 95%
22:00 +16°C° 0 mm 3 mps 753 mmHg 95%
23:00 +16°C° 0 mm 3 mps 753 mmHg 94%

11 August, Tuesday

Time Temperature Precipitation Wind Pressure Humidity
00:00 +16°C° 0 mm 2 mps 753 mmHg 94%
01:00 +16°C° 0 mm 2 mps 753 mmHg 94%
02:00 +16°C° 0 mm 2 mps 753 mmHg 94%
03:00 +16°C° 0 mm 2 mps 753 mmHg 95%
04:00 +17°C° 0 mm 2 mps 753 mmHg 95%
05:00 +17°C° 0 mm 2 mps 753 mmHg 95%
06:00 +18°C° 0 mm 2 mps 753 mmHg 95%
07:00 +19°C° 0 mm 2 mps 753 mmHg 92%
08:00 +20°C° 0 mm 2 mps 753 mmHg 88%
09:00 +21°C° 0 mm 2 mps 753 mmHg 85%
10:00 +23°C° 0 mm 2 mps 753 mmHg 80%
11:00 +24°C° 0 mm 2 mps 753 mmHg 76%
12:00 +25°C° 0 mm 2 mps 753 mmHg 72%
13:00 +26°C° 0 mm 2 mps 753 mmHg 69%
14:00 +26°C° 0 mm 2 mps 753 mmHg 67%
15:00 +27°C° 0 mm 1 mps 753 mmHg 65%
16:00 +26°C° 0 mm 2 mps 753 mmHg 70%
17:00 +25°C° 0 mm 2 mps 753 mmHg 74%
18:00 +25°C° 0 mm 2 mps 752 mmHg 79%
19:00 +23°C° 0 mm 2 mps 752 mmHg 84%
20:00 +20°C° 0 mm 2 mps 752 mmHg 89%
21:00 +19°C° 0 mm 3 mps 752 mmHg 94%
22:00 +19°C° 0 mm 3 mps 752 mmHg 94%
23:00 +19°C° 0 mm 3 mps 752 mmHg 94%

12 August, Wednesday

Time Temperature Precipitation Wind Pressure Humidity
00:00 +18°C° 0 mm 3 mps 752 mmHg 94%
01:00 +19°C° 0.1 mm 3 mps 752 mmHg 95%
02:00 +19°C° 0.1 mm 3 mps 751 mmHg 95%
03:00 +19°C° 0.1 mm 3 mps 751 mmHg 96%
04:00 +19°C° 0.4 mm 3 mps 751 mmHg 96%
05:00 +19°C° 0.4 mm 3 mps 750 mmHg 96%
06:00 +19°C° 0.4 mm 3 mps 750 mmHg 96%
07:00 +20°C° 0.6 mm 3 mps 750 mmHg 95%
08:00 +20°C° 0.6 mm 3 mps 750 mmHg 94%
09:00 +20°C° 0.6 mm 3 mps 750 mmHg 93%
10:00 +20°C° 1.4 mm 3 mps 750 mmHg 94%
11:00 +20°C° 1.4 mm 3 mps 750 mmHg 95%
12:00 +20°C° 1.4 mm 3 mps 750 mmHg 95%
13:00 +20°C° 5.5 mm 3 mps 749 mmHg 96%
14:00 +19°C° 5.5 mm 3 mps 749 mmHg 97%
15:00 +19°C° 5.5 mm 3 mps 748 mmHg 98%
16:00 +19°C° 4.3 mm 4 mps 748 mmHg 97%
17:00 +19°C° 4.3 mm 4 mps 748 mmHg 96%
18:00 +19°C° 4.3 mm 5 mps 747 mmHg 95%
19:00 +17°C° 0.1 mm 5 mps 748 mmHg 95%
20:00 +17°C° 0.1 mm 6 mps 748 mmHg 94%
21:00 +17°C° 0.1 mm 6 mps 748 mmHg 94%
22:00 +16°C° 0.4 mm 7 mps 748 mmHg 94%
23:00 +16°C° 0.4 mm 7 mps 748 mmHg 94%

13 August, Thursday

Time Temperature Precipitation Wind Pressure Humidity
00:00 +15°C° 0.4 mm 8 mps 748 mmHg 93%
01:00 +15°C° 1.1 mm 7 mps 748 mmHg 94%
02:00 +15°C° 1.1 mm 6 mps 748 mmHg 94%
03:00 +15°C° 1.1 mm 4 mps 748 mmHg 95%
04:00 +15°C° 0.4 mm 4 mps 749 mmHg 95%
05:00 +15°C° 0.4 mm 4 mps 749 mmHg 95%
06:00 +16°C° 0.4 mm 3 mps 750 mmHg 95%
07:00 +17°C° 0 mm 4 mps 750 mmHg 92%
08:00 +17°C° 0 mm 4 mps 751 mmHg 89%
09:00 +17°C° 0 mm 5 mps 751 mmHg 85%
10:00 +19°C° 0.1 mm 5 mps 751 mmHg 80%
11:00 +19°C° 0.1 mm 5 mps 752 mmHg 75%
12:00 +20°C° 0.1 mm 5 mps 752 mmHg 70%
13:00 +20°C° 0 mm 5 mps 752 mmHg 68%
14:00 +20°C° 0 mm 5 mps 752 mmHg 66%
15:00 +20°C° 0 mm 5 mps 752 mmHg 64%
16:00 +19°C° 0 mm 4 mps 752 mmHg 68%
17:00 +19°C° 0 mm 4 mps 752 mmHg 71%
18:00 +18°C° 0 mm 4 mps 752 mmHg 74%
19:00 +17°C° 0 mm 3 mps 752 mmHg 79%
20:00 +15°C° 0 mm 2 mps 752 mmHg 84%
21:00 +14°C° 0 mm 1 mps 752 mmHg 89%
22:00 +14°C° 0 mm 1 mps 752 mmHg 88%
23:00 +14°C° 0 mm 1 mps 751 mmHg 87%
Show more